When you browse on this site, cookies collect data to enhance your experience and personalize the content and advertising you see.
Visit our Privacy Policy to learn more. By continuing to use the site, you agree to this use of cookies and data.
  • In Hungary
  • List of Countries
  • For 7 days
  • Water Temperature
  • Satellite Maps
  • Weather Map
  • News
  • Weather Widgets
  • user-avatar
    Login

    Hourly Weather Haridwar

    Today, 22 July, Monday

    Time Temperature Precipitation Wind Pressure Humidity
    00:00 +31°C° 0 mm 1 mps 725 mmHg 71%
    01:00 +30°C° 0 mm 1 mps 725 mmHg 71%
    02:00 +30°C° 0 mm 1 mps 725 mmHg 72%
    03:00 +30°C° 0.1 mm 1 mps 725 mmHg 73%
    04:00 +30°C° 0.1 mm 1 mps 725 mmHg 74%
    05:00 +29°C° 0 mm 1 mps 725 mmHg 74%
    06:00 +31°C° 0.3 mm 1 mps 726 mmHg 70%
    07:00 +32°C° 0.3 mm 1 mps 726 mmHg 66%
    08:00 +34°C° 0.3 mm 1 mps 726 mmHg 62%
    09:00 +35°C° 0.1 mm 1 mps 726 mmHg 56%
    10:00 +37°C° 0.1 mm 1 mps 725 mmHg 50%
    11:00 +39°C° 0 mm 2 mps 726 mmHg 43%
    12:00 +39°C° 0 mm 2 mps 725 mmHg 44%
    13:00 +39°C° 0 mm 2 mps 725 mmHg 45%
    14:00 +39°C° 0 mm 3 mps 724 mmHg 46%
    15:00 +39°C° 0 mm 2 mps 724 mmHg 47%
    16:00 +38°C° 0 mm 2 mps 723 mmHg 48%
    17:00 +38°C° 0 mm 2 mps 723 mmHg 49%
    18:00 +37°C° 0 mm 2 mps 723 mmHg 54%
    19:00 +34°C° 0 mm 1 mps 724 mmHg 58%
    20:00 +33°C° 0 mm 1 mps 724 mmHg 63%
    21:00 +33°C° 0 mm 1 mps 724 mmHg 64%
    22:00 +32°C° 0 mm 1 mps 724 mmHg 65%
    23:00 +32°C° 0 mm 1 mps 724 mmHg 66%

    Tomorrow, 23 July, Tuesday

    Time Temperature Precipitation Wind Pressure Humidity
    00:00 +32°C° 0 mm 1 mps 724 mmHg 67%
    01:00 +31°C° 0 mm 1 mps 724 mmHg 68%
    02:00 +31°C° 0 mm 1 mps 724 mmHg 68%
    03:00 +31°C° 0 mm 1 mps 724 mmHg 69%
    04:00 +31°C° 0 mm 1 mps 724 mmHg 69%
    05:00 +30°C° 0 mm 1 mps 723 mmHg 70%
    06:00 +32°C° 0.1 mm 1 mps 724 mmHg 66%
    07:00 +34°C° 0.1 mm 1 mps 724 mmHg 62%
    08:00 +35°C° 0.1 mm 1 mps 724 mmHg 57%
    09:00 +36°C° 0.3 mm 1 mps 724 mmHg 53%
    10:00 +38°C° 0.3 mm 2 mps 724 mmHg 49%
    11:00 +40°C° 0.3 mm 2 mps 724 mmHg 46%
    12:00 +40°C° 0.1 mm 2 mps 723 mmHg 45%
    13:00 +40°C° 0.1 mm 3 mps 723 mmHg 44%
    14:00 +40°C° 0.1 mm 3 mps 722 mmHg 43%
    15:00 +40°C° 0 mm 3 mps 722 mmHg 44%
    16:00 +40°C° 0 mm 2 mps 721 mmHg 45%
    17:00 +40°C° 0 mm 2 mps 721 mmHg 46%
    18:00 +37°C° 0 mm 1 mps 721 mmHg 49%
    19:00 +36°C° 0 mm 1 mps 722 mmHg 51%
    20:00 +35°C° 0 mm 1 mps 722 mmHg 54%
    21:00 +34°C° 0 mm 1 mps 722 mmHg 55%
    22:00 +33°C° 0 mm 1 mps 722 mmHg 57%
    23:00 +33°C° 0 mm 1 mps 723 mmHg 58%

    Day after tomorrow, 24 July, Wednesday

    Time Temperature Precipitation Wind Pressure Humidity
    00:00 +33°C° 0 mm 1 mps 722 mmHg 59%
    01:00 +32°C° 0 mm 1 mps 722 mmHg 60%
    02:00 +32°C° 0 mm 1 mps 722 mmHg 61%
    03:00 +32°C° 0 mm 1 mps 722 mmHg 62%
    04:00 +31°C° 0 mm 1 mps 722 mmHg 62%
    05:00 +31°C° 0 mm 1 mps 722 mmHg 63%
    06:00 +33°C° 0 mm 1 mps 722 mmHg 59%
    07:00 +35°C° 0 mm 1 mps 722 mmHg 55%
    08:00 +36°C° 0 mm 1 mps 722 mmHg 52%
    09:00 +38°C° 0 mm 2 mps 722 mmHg 49%
    10:00 +39°C° 0 mm 2 mps 722 mmHg 47%
    11:00 +40°C° 0 mm 3 mps 722 mmHg 44%
    12:00 +41°C° 0.3 mm 2 mps 721 mmHg 43%
    13:00 +41°C° 0.3 mm 2 mps 721 mmHg 42%
    14:00 +41°C° 0.3 mm 2 mps 721 mmHg 42%
    15:00 +40°C° 0.2 mm 1 mps 721 mmHg 44%
    16:00 +39°C° 0.2 mm 1 mps 721 mmHg 47%
    17:00 +39°C° 0.2 mm 1 mps 720 mmHg 50%
    18:00 +36°C° 0.1 mm 1 mps 721 mmHg 54%
    19:00 +36°C° 0.1 mm 2 mps 721 mmHg 58%
    20:00 +35°C° 0.1 mm 3 mps 722 mmHg 62%
    21:00 +34°C° 0.5 mm 3 mps 722 mmHg 67%
    22:00 +33°C° 0.5 mm 3 mps 722 mmHg 73%
    23:00 +31°C° 0.5 mm 3 mps 722 mmHg 79%

    25 July, Thursday

    Time Temperature Precipitation Wind Pressure Humidity
    00:00 +30°C° 1.5 mm 3 mps 722 mmHg 82%
    01:00 +29°C° 1.5 mm 3 mps 722 mmHg 86%
    02:00 +29°C° 1.5 mm 3 mps 722 mmHg 89%
    03:00 +29°C° 2.2 mm 3 mps 722 mmHg 90%
    04:00 +28°C° 2.2 mm 2 mps 722 mmHg 91%
    05:00 +28°C° 2.2 mm 2 mps 723 mmHg 92%
    06:00 +28°C° 4.2 mm 2 mps 723 mmHg 93%
    07:00 +28°C° 4.2 mm 2 mps 723 mmHg 93%
    08:00 +28°C° 4.2 mm 2 mps 724 mmHg 94%
    09:00 +29°C° 2 mm 2 mps 724 mmHg 90%
    10:00 +30°C° 2 mm 2 mps 724 mmHg 87%
    11:00 +31°C° 2 mm 3 mps 724 mmHg 83%
    12:00 +30°C° 0.7 mm 3 mps 724 mmHg 83%
    13:00 +30°C° 0.7 mm 3 mps 724 mmHg 83%
    14:00 +30°C° 0.7 mm 3 mps 723 mmHg 84%
    15:00 +30°C° 0.4 mm 3 mps 723 mmHg 83%
    16:00 +30°C° 0.4 mm 3 mps 723 mmHg 82%
    17:00 +30°C° 0.4 mm 3 mps 723 mmHg 81%
    18:00 +30°C° 0.4 mm 2 mps 723 mmHg 83%
    19:00 +29°C° 0.4 mm 2 mps 723 mmHg 85%
    20:00 +29°C° 0.4 mm 1 mps 724 mmHg 87%
    21:00 +28°C° 0.4 mm 1 mps 724 mmHg 87%
    22:00 +28°C° 0.4 mm 1 mps 724 mmHg 87%
    23:00 +28°C° 0.4 mm 1 mps 724 mmHg 86%

    26 July, Friday

    Time Temperature Precipitation Wind Pressure Humidity
    00:00 +28°C° 0.5 mm 2 mps 724 mmHg 86%
    01:00 +28°C° 0.5 mm 2 mps 724 mmHg 85%
    02:00 +28°C° 0.5 mm 3 mps 723 mmHg 84%
    03:00 +28°C° 0.5 mm 3 mps 724 mmHg 85%
    04:00 +28°C° 0.5 mm 2 mps 724 mmHg 86%
    05:00 +28°C° 0.5 mm 2 mps 724 mmHg 87%
    06:00 +28°C° 0.3 mm 2 mps 724 mmHg 86%
    07:00 +28°C° 0.3 mm 2 mps 724 mmHg 85%
    08:00 +29°C° 0.3 mm 2 mps 725 mmHg 84%
    09:00 +29°C° 0.2 mm 2 mps 725 mmHg 81%
    10:00 +30°C° 0.2 mm 2 mps 725 mmHg 78%
    11:00 +30°C° 0.2 mm 2 mps 725 mmHg 76%
    12:00 +31°C° 0.2 mm 1 mps 725 mmHg 73%
    13:00 +32°C° 0.2 mm 1 mps 724 mmHg 70%
    14:00 +32°C° 0.2 mm 1 mps 724 mmHg 67%
    15:00 +33°C° 0.1 mm 1 mps 723 mmHg 66%
    16:00 +33°C° 0.1 mm 1 mps 723 mmHg 65%
    17:00 +33°C° 0.1 mm 1 mps 723 mmHg 64%
    18:00 +32°C° 0.3 mm 1 mps 723 mmHg 69%
    19:00 +31°C° 0.3 mm 1 mps 724 mmHg 74%
    20:00 +30°C° 0.3 mm 1 mps 724 mmHg 79%
    21:00 +29°C° 0.1 mm 1 mps 724 mmHg 79%
    22:00 +29°C° 0.1 mm 1 mps 724 mmHg 80%
    23:00 +29°C° 0.1 mm 1 mps 724 mmHg 81%

    27 July, Saturday

    Time Temperature Precipitation Wind Pressure Humidity
    00:00 +29°C° 0 mm 1 mps 724 mmHg 80%
    01:00 +28°C° 0 mm 1 mps 724 mmHg 80%
    02:00 +28°C° 0 mm 1 mps 724 mmHg 80%
    03:00 +28°C° 0.1 mm 1 mps 724 mmHg 80%
    04:00 +28°C° 0.1 mm 1 mps 724 mmHg 80%
    05:00 +28°C° 0.1 mm 1 mps 723 mmHg 79%
    06:00 +29°C° 0.2 mm 1 mps 724 mmHg 77%
    07:00 +30°C° 0.2 mm 2 mps 724 mmHg 75%
    08:00 +31°C° 0.2 mm 3 mps 725 mmHg 72%
    09:00 +34°C° 0 mm 3 mps 725 mmHg 67%
    10:00 +35°C° 0 mm 3 mps 725 mmHg 62%
    11:00 +36°C° 0 mm 3 mps 724 mmHg 57%
    12:00 +37°C° 0.8 mm 3 mps 724 mmHg 57%
    13:00 +37°C° 0.8 mm 3 mps 723 mmHg 56%
    14:00 +37°C° 0.8 mm 3 mps 723 mmHg 56%
    15:00 +37°C° 0.6 mm 3 mps 723 mmHg 59%
    16:00 +36°C° 0.6 mm 3 mps 723 mmHg 61%
    17:00 +36°C° 0.6 mm 2 mps 723 mmHg 64%
    18:00 +34°C° 0.5 mm 2 mps 723 mmHg 68%
    19:00 +32°C° 0.5 mm 2 mps 723 mmHg 73%
    20:00 +31°C° 0.5 mm 1 mps 724 mmHg 78%
    21:00 +30°C° 0.3 mm 1 mps 724 mmHg 79%
    22:00 +30°C° 0.3 mm 1 mps 724 mmHg 80%
    23:00 +30°C° 0.3 mm 1 mps 724 mmHg 80%
    Show more